Regional Weather Roundup
Issued by NWS

Home | Current Version | Previous Version | Text Only | Print | Product List | Glossary On
Versions: 1 2 3 4 5 6 7 8 9 10 11 12 13 14 15 16 17 18 19 20 21 22 23 24 25 26 27 28 29 30 31 32 33 34 35 36 37 38 39 40 41 42 43 44 45 46 47 48 49 50
000
ASUS44 KOUN 260310
RWROK

WEATHER ROUNDUP FOR OKLAHOMA
NATIONAL WEATHER SERVICE NORMAN OK
900 PM CST TUE NOV 25 2014

NOTE: "FAIR" INDICATES FEW OR NO CLOUDS BELOW 12,000 FEET WITH NO
      SIGNIFICANT WEATHER AND/OR OBSTRUCTIONS TO VISIBILITY.

OKZ001>007-009>012-014-015-017-260400-
NORTHWEST OKLAHOMA AND THE PANHANDLE

CITY           SKY/WX    TMP DP  RH WIND       PRES   REMARKS
GAGE           MOCLDY    41  19  41 S14       29.95F
ENID/WOODRING  MOCLDY    41  32  70 S10       30.00F
$$

OKZ016-021>023-033>039-044-045-260400-
SOUTHWEST OKLAHOMA

CITY           SKY/WX    TMP DP  RH WIND       PRES   REMARKS
LAWTON/REGL    MOCLDY    45  32  60 SE8       30.06F
LAWTON/FT SILL MOCLDY    43  31  63 SE8       30.04F
FREDERICK      PTCLDY    45  34  65 S13       30.01F
CLINTON        MOCLDY    44  29  55 S16       30.01F
HOBART         MOCLDY    44  32  62 S16       30.01F
ALTUS AFB      CLEAR     42  35  77 SE10      30.02F
$$

OKZ018>020-024>031-260400-
CENTRAL OKLAHOMA

CITY           SKY/WX    TMP DP  RH WIND       PRES   REMARKS
OKLAHOMA CITY  CLOUDY    45  28  51 S9        30.06F
OKC/WILEY POST CLOUDY    46  27  47 S13       30.06F
OKC/TINKER AFB CLOUDY    45  27  48 S10       30.06F
STILLWATER     CLOUDY    43  26  51 S8        30.05F
GUTHRIE        CLOUDY    47  27  45 S8        30.05F
$$

OKZ008-013-054>072-260400-
NORTHEAST OKLAHOMA

CITY           SKY/WX    TMP DP  RH WIND       PRES   REMARKS
TULSA          CLOUDY    45  22  40 S8        30.10S
TULSA/JONES    CLOUDY    44  23  43 S5        30.12S
PONCA CITY     CLOUDY    44  27  51 SE12      30.03F
BARTLESVILLE   CLOUDY    39  24  55 S3        30.11S
MUSKOGEE       CLOUDY    38  27  64 S7        30.14S WCI  33
$$

OKZ032-040>043-046>053-073>077-260400-
SOUTH CENTRAL/SOUTHEAST OKLAHOMA

CITY           SKY/WX    TMP DP  RH WIND       PRES   REMARKS
ARDMORE/DWNTWN CLOUDY    43  32  65 CALM      30.12S
MCALESTER      CLOUDY    43  29  57 CALM      30.13S
$$



USA.gov is the U.S. government's official web portal to all federal, state and local government web resources and services.